SCP
0 0 0 1 1 0 0 0 0 0 0 0 0 0 0 0 0 0 0 1 1 2 2 3 3 3 2 2 1 1 1 1 1 1 1 1 1 1 1 1 1 1 1 1 1 1 1 1 0
0 0 0 1 1 0 0 0 0 0 0 0 0 0 0 0 0 0 1 1 1 2 2 3 3 3 3 2 2 1 1 1 1 1 1 1 1 1 1 1 1 1 1 1 1 1 1 1 0
0 0 1 1 0 0 0 0 0 0 0 0 0 0 0 0 0 1 1 1 1 2 2 2 3 3 3 2 2 2 1 1 1 1 1 1 1 1 1 1 1 1 1 1 1 1 1 1 1
0 0 1 1 0 0 0 0 0 0 1 1 1 0 0 1 1 1 1 1 1 1 1 2 3 3 3 2 2 2 1 1 1 1 1 1 1 1 1 1 1 1 2 2 2 1 1 1 1
0 0 1 0 0 0 0 0 0 1 1 1 1 1 1 1 2 2 2 1 1 1 1 2 3 3 3 2 2 2 1 1 1 1 1 1 1 1 1 1 1 1 2 2 1 1 1 1 1
0 0 0 0 0 0 0 0 1 1 2 2 2 1 1 1 2 3 2 1 1 1 1 2 3 3 3 2 2 2 2 1 1 1 1 1 1 1 1 1 1 1 1 1 1 1 1 1 1
0 0 0 0 0 0 0 0 1 2 2 3 2 1 1 2 2 2 2 1 1 1 1 2 2 3 2 2 3 3 2 2 1 1 1 1 1 1 1 1 1 1 1 1 1 0 1 1 1
0 0 0 0 0 0 0 1 1 2 2 2 2 1 1 2 2 2 2 2 1 1 1 2 2 2 2 2 3 3 2 2 2 1 1 1 1 1 0 0 1 1 1 1 1 1 1 1 1
0 0 0 0 0 1 1 1 1 2 2 2 1 2 2 2 3 3 4 3 2 2 1 2 2 2 1 2 3 2 2 2 2 1 1 1 1 1 0 0 1 1 1 1 1 1 1 1 1
0 0 0 0 0 1 1 1 1 1 2 2 2 2 3 3 3 4 5 5 3 2 2 2 2 2 2 2 2 1 1 1 1 1 1 1 1 1 0 0 1 1 1 1 1 1 1 1 1
0 0 0 0 0 1 2 2 2 2 2 3 3 3 3 4 4 5 6 5 4 3 2 1 2 2 2 2 2 1 1 1 1 1 1 1 1 1 0 0 1 1 1 1 1 1 1 1 1
0 0 0 0 1 2 3 4 3 3 3 3 3 3 3 3 4 5 5 5 4 3 2 2 1 1 2 2 2 2 2 2 1 1 1 1 1 1 1 1 1 1 1 1 1 1 1 1 1
0 0 0 0 1 2 3 4 4 3 3 3 4 3 3 4 6 6 6 5 4 3 3 2 2 2 2 2 3 3 3 2 1 1 1 1 1 1 1 1 1 1 1 1 1 1 1 1 1
0 0 0 1 1 2 3 4 3 3 3 5 5 4 5 6 8 7 6 6 6 5 4 3 3 2 2 3 4 3 2 1 1 1 1 1 1 1 1 1 1 1 1 1 1 1 1 1 1
0 0 0 1 1 2 3 3 3 3 4 5 6 7 9 10 10 8 7 7 7 6 5 5 4 3 3 4 4 3 2 1 1 1 1 1 1 1 1 1 1 1 1 1 0 1 1 0 0
0 0 0 0 1 1 2 3 3 4 4 5 7 11 14 13 11 9 8 8 8 7 6 6 5 5 4 4 3 2 1 1 1 1 1 1 1 1 1 2 1 1 1 1 0 0 0 0 0
0 0 0 0 0 1 2 2 3 3 3 4 8 14 17 15 12 9 9 9 9 8 7 6 6 5 4 3 2 1 1 1 1 1 1 1 1 1 1 2 2 2 1 1 1 0 0 0 0
0 0 0 0 0 1 2 2 2 3 4 5 10 15 16 14 11 10 9 10 10 9 9 7 6 5 4 3 2 1 1 1 1 1 1 1 1 1 2 2 2 2 1 1 1 1 0 0 0
0 0 0 0 0 1 1 1 2 3 4 7 11 14 14 12 11 10 10 10 11 11 10 9 7 6 4 3 2 2 2 1 1 1 1 1 1 2 2 2 2 2 2 1 1 1 0 0 0
0 0 0 0 0 1 1 1 1 2 5 8 11 12 12 11 10 9 8 9 11 12 13 11 8 6 5 4 3 2 2 2 2 1 1 1 2 2 2 2 2 2 2 1 1 1 1 0 0
0 0 0 0 0 0 0 1 1 3 5 7 8 10 11 10 8 7 8 8 9 11 12 10 7 6 5 5 4 3 2 2 2 2 1 1 2 2 2 2 2 2 2 2 1 1 1 1 1
0 0 0 0 0 0 0 1 3 4 5 5 7 9 10 9 8 8 8 8 8 8 9 8 6 5 5 5 5 4 3 3 2 2 2 1 1 1 2 2 2 2 2 2 2 1 2 1 1
0 0 0 0 0 0 0 1 3 5 5 5 6 8 9 9 10 10 10 9 8 8 7 7 6 5 5 6 6 5 4 3 3 2 2 1 1 2 2 2 2 3 3 3 2 2 2 2 2
0 0 0 0 0 0 0 1 2 3 4 4 6 8 9 10 11 12 11 10 9 9 7 7 6 5 5 6 6 5 4 3 3 2 2 1 2 2 2 2 2 3 3 3 3 3 3 3 3
0 0 0 0 0 0 0 1 2 2 3 4 6 9 10 10 10 10 10 10 10 9 8 6 6 6 5 5 5 5 4 4 3 2 2 2 2 3 3 3 3 3 3 3 3 4 3 3 3
0 0 0 0 0 0 0 1 2 3 3 4 6 8 9 9 8 8 10 10 10 9 7 6 5 5 5 5 5 4 4 4 3 2 2 2 2 3 3 3 3 3 3 3 4 4 4 3 3
0 0 0 0 0 0 0 1 2 3 3 4 6 8 9 8 7 7 9 10 9 8 7 6 5 5 5 6 6 6 6 5 4 3 2 2 3 3 3 3 3 3 3 3 3 3 3 3 3
0 0 0 0 0 0 0 1 2 2 3 4 6 7 7 6 5 5 7 8 8 7 7 7 6 4 4 5 6 7 7 7 6 4 3 3 3 3 3 3 3 3 3 3 3 2 2 2 2
0 0 0 0 0 0 0 0 1 2 2 3 5 6 5 4 4 4 5 7 7 7 7 8 6 4 3 4 6 8 9 10 9 7 5 4 4 3 3 3 3 3 2 2 2 2 2 2 2
0 0 0 0 0 0 0 0 1 2 2 3 4 5 4 3 3 4 5 6 7 7 8 8 6 4 3 4 5 7 10 12 11 8 6 5 4 3 3 3 3 3 2 2 2 2 2 2 2
Wind_Speed
4 3 1 2 5 5 3 3 1 3 5 7 10 11 9 6 5 5 3 11 13 11 8 11 12 12 13 12 11 11 10 10 10 9 9 8 8 7 7 7 7 7 6 7 7 6 6 6 6
2 2 2 4 5 2 4 3 2 4 7 10 11 10 9 7 7 9 7 11 13 12 8 10 13 12 12 12 11 11 10 10 9 9 8 8 7 7 6 6 7 6 6 6 6 6 6 6 6
2 2 3 4 3 3 3 2 3 5 6 8 7 7 6 6 8 7 9 14 12 10 7 10 14 13 12 12 11 10 10 9 9 8 8 7 6 6 6 6 6 6 6 6 6 6 6 5 5
2 3 4 4 1 4 4 4 2 5 4 6 9 7 4 4 6 10 15 15 13 9 7 9 13 12 12 11 11 10 10 9 8 8 7 6 5 5 5 5 5 5 5 5 5 5 4 5 5
3 4 4 2 3 5 5 6 4 4 3 6 10 8 4 3 14 17 15 14 13 9 7 8 12 12 11 11 11 10 9 8 7 7 6 5 4 4 4 4 4 4 4 4 4 3 4 4 4
4 4 3 2 4 4 3 4 5 6 7 8 10 8 3 7 14 15 15 12 12 12 8 8 12 12 11 11 10 9 8 7 7 6 5 4 3 3 3 3 3 3 3 3 3 3 3 3 3
4 3 2 3 3 3 3 2 6 7 6 6 8 8 5 6 11 13 13 11 10 10 9 6 6 8 10 11 10 9 8 7 6 5 4 4 3 2 2 2 2 2 2 3 3 3 3 2 2
5 4 1 2 2 3 3 0 4 8 6 6 6 9 8 9 11 12 12 10 9 7 7 6 5 5 5 6 9 9 8 7 6 5 4 3 3 2 2 2 2 2 2 3 2 2 3 2 1
3 4 2 4 3 3 2 3 2 4 7 4 4 6 11 15 14 13 11 9 7 6 5 6 5 5 4 4 7 7 7 6 5 3 3 2 1 1 1 2 3 3 3 3 3 3 2 2 2
4 3 7 6 4 3 1 3 5 5 7 6 7 10 13 14 15 14 12 10 8 7 5 5 5 5 4 4 4 2 3 2 2 1 1 1 1 1 1 2 3 3 4 4 4 4 3 2 1
3 5 6 5 5 3 2 2 4 8 5 8 14 15 14 13 13 14 12 11 10 9 7 5 5 5 5 3 3 2 1 1 1 1 1 1 0 0 1 1 1 2 3 2 3 3 2 2 2
2 6 5 5 3 2 2 2 4 6 8 12 17 18 14 13 12 12 13 11 10 10 8 7 6 5 4 4 3 3 2 1 1 1 1 1 0 0 1 0 1 1 1 1 1 2 2 3 3
3 6 5 4 2 3 2 2 3 3 8 13 16 15 13 12 10 9 11 10 10 10 8 8 6 5 4 4 3 3 2 2 2 1 1 1 1 0 0 1 0 0 1 1 1 2 3 3 3
5 4 4 3 2 1 3 1 3 4 11 13 14 12 12 11 10 9 10 9 9 9 8 7 7 6 5 4 3 3 3 2 2 1 1 1 1 1 0 1 1 1 1 1 2 3 3 3 3
2 3 5 3 1 1 5 4 1 6 11 12 12 11 10 9 9 10 10 10 9 9 8 7 7 6 5 4 4 3 3 2 2 1 1 1 1 1 1 2 1 1 1 2 3 3 3 3 3
4 2 2 5 1 1 6 1 2 6 11 10 9 9 9 7 7 7 8 7 8 8 8 7 7 6 5 4 4 3 2 3 2 1 1 1 2 2 2 2 2 2 2 2 3 3 3 3 3
4 1 3 6 2 1 4 2 3 6 10 10 9 9 9 7 6 6 7 7 7 9 9 7 6 6 5 4 3 3 3 2 1 1 1 1 1 2 2 2 2 2 3 2 2 2 2 2 2
4 3 3 4 3 4 3 3 3 5 10 10 9 8 8 8 8 8 7 6 7 7 8 7 6 5 4 3 3 2 2 1 1 1 1 1 1 2 3 2 2 3 3 2 2 3 2 2 2
4 3 5 6 3 3 3 4 5 4 7 8 8 8 8 7 6 6 6 6 7 6 7 6 6 4 4 3 2 2 1 1 1 1 1 1 1 2 3 2 2 2 2 2 2 2 3 2 2
4 4 5 6 3 2 3 4 3 3 6 8 10 9 9 7 6 6 6 6 7 7 7 6 6 4 4 3 2 2 2 1 1 1 1 1 2 2 3 3 2 2 2 3 3 2 2 1 2
5 5 5 4 3 3 2 2 3 1 3 4 5 6 8 11 11 9 9 8 8 8 8 7 6 5 4 4 3 3 2 2 2 1 1 1 2 2 3 3 3 2 2 2 2 2 3 2 1
5 6 4 2 1 2 1 1 4 1 2 2 3 4 6 9 11 11 10 10 9 8 7 6 5 5 4 5 4 5 3 2 1 1 0 1 1 2 2 3 3 3 2 2 2 2 2 3 1
6 5 2 2 2 1 2 3 5 1 0 2 3 5 5 7 10 11 11 10 8 7 7 6 5 4 4 4 5 4 3 2 1 1 1 1 1 1 1 2 2 2 2 2 2 2 2 2 2
3 3 5 5 5 2 3 3 4 4 6 5 4 5 5 5 6 8 8 7 7 7 6 6 5 3 3 4 4 4 4 3 3 2 1 0 0 1 1 2 1 1 2 2 2 2 2 2 2
2 5 4 5 4 4 3 2 5 5 5 6 7 7 6 6 7 7 7 7 7 7 7 6 7 5 4 4 3 4 4 4 4 2 2 1 0 0 0 1 1 0 1 1 2 2 2 2 3
2 8 7 4 4 4 3 1 4 2 2 3 4 5 5 6 7 8 8 8 8 7 7 6 6 5 4 4 3 3 4 3 2 2 2 2 1 1 1 1 1 0 1 1 1 1 2 2 2
2 2 7 7 1 0 2 2 3 2 3 3 4 5 5 5 6 7 7 7 7 6 6 6 6 5 5 4 4 3 3 3 3 2 2 1 1 1 1 1 1 0 1 1 1 1 2 2 2
4 5 6 5 3 1 2 3 4 4 3 3 4 5 6 5 6 6 6 6 6 5 5 5 5 5 5 5 4 3 3 3 3 2 2 1 1 1 1 1 1 1 0 0 0 1 1 1 1
2 2 5 4 5 5 3 6 6 8 7 7 6 6 7 7 7 6 5 5 5 4 5 5 4 4 4 4 3 3 2 2 2 2 2 2 1 1 1 1 1 1 1 1 1 1 1 2 1
4 3 5 4 3 4 4 7 4 6 5 7 6 5 6 6 6 6 6 5 4 4 4 4 4 4 3 3 3 3 3 2 2 2 1 1 1 1 1 1 1 1 1 1 1 1 1 2 2
Wind_Direction
181 182 134 64 54 45 302 277 118 43 51 64 79 86 86 77 113 135 136 137 137 142 146 140 135 131 127 123 120 116 111 106 102 98 95 93 94 95 94 93 88 92 100 106 103 105 118 123 126
183 169 71 58 81 58 290 258 113 100 122 109 86 87 81 76 94 113 126 142 141 142 144 140 138 135 132 128 125 121 117 113 109 104 101 99 96 97 99 97 95 94 99 108 108 107 109 113 121
221 175 82 68 97 176 236 246 129 106 120 108 93 71 80 109 114 128 144 144 139 138 139 141 137 136 133 131 130 127 123 119 116 113 109 106 100 94 97 101 100 102 104 109 108 108 108 108 108
102 60 54 71 233 232 222 243 166 112 84 88 100 77 69 113 123 132 139 143 136 134 134 137 137 138 137 135 133 130 128 125 122 119 116 112 106 101 98 102 106 107 107 108 106 102 110 106 104
73 75 54 27 251 251 239 233 197 131 123 108 102 98 72 68 117 128 136 138 134 132 134 138 142 142 141 140 138 135 132 131 129 125 122 117 111 110 109 108 108 115 115 112 111 104 101 101 102
57 70 74 269 265 270 264 223 146 113 121 117 108 109 103 123 124 134 136 137 139 140 140 144 152 151 149 146 144 143 139 135 133 129 125 118 112 112 113 114 114 123 128 124 121 115 106 102 102
114 100 182 233 272 294 282 198 134 132 138 139 128 108 125 138 137 136 134 133 137 139 142 146 155 155 156 155 154 152 147 144 140 136 132 127 129 132 133 137 145 155 157 148 145 138 129 114 121
151 101 322 286 277 285 276 14 137 136 134 126 120 132 156 166 141 130 126 128 131 138 145 150 155 156 160 161 160 157 157 153 148 148 149 147 156 164 177 186 184 188 184 173 173 163 147 128 130
119 85 246 237 232 259 262 107 95 92 113 114 111 133 147 145 132 123 119 118 128 136 152 155 156 160 165 164 164 160 160 159 156 159 165 169 208 223 227 218 206 206 209 206 205 197 163 140 123
113 157 223 218 204 233 245 152 130 96 92 84 86 102 122 130 131 134 138 141 145 149 164 166 165 163 163 167 154 154 156 156 163 185 204 217 234 238 237 240 229 227 227 223 216 200 166 146 104
175 202 239 247 234 229 175 137 123 123 130 150 141 139 138 135 136 141 148 155 159 159 165 170 173 165 161 155 147 152 153 155 176 182 180 183 206 294 314 304 279 264 248 250 225 203 174 145 129
241 248 239 245 249 224 180 136 109 148 171 154 144 144 145 142 146 150 153 157 155 157 167 172 171 164 160 149 153 156 156 162 170 195 165 132 102 8 313 284 268 281 282 274 186 152 148 137 133
256 258 268 257 245 213 147 119 122 136 137 134 135 138 142 145 151 150 151 152 151 158 163 166 169 164 161 151 159 157 163 165 175 169 168 138 132 138 284 263 167 322 339 27 83 122 128 128 128
251 274 290 287 268 206 116 64 87 146 137 135 138 142 145 147 145 143 148 152 153 156 159 159 159 166 160 154 161 161 162 160 148 135 147 132 114 94 58 58 116 91 36 66 90 104 115 118 120
293 341 325 294 254 174 88 25 30 153 137 138 144 145 144 148 143 145 155 157 156 155 156 156 155 153 152 147 149 146 148 142 129 133 134 116 96 91 82 74 71 66 62 70 76 78 84 93 97
355 19 307 289 296 216 105 190 254 145 139 139 146 149 149 153 149 150 147 148 150 149 148 153 149 143 146 141 135 131 130 133 134 134 130 117 96 93 81 76 69 64 71 74 82 80 80 78 82
1 323 279 297 277 140 111 192 232 152 142 143 149 158 153 146 146 152 146 150 151 152 149 145 138 143 142 134 126 122 118 124 135 123 118 130 106 97 95 83 70 76 73 67 86 81 94 94 88
260 273 286 279 283 110 123 201 213 165 148 153 151 151 154 157 165 158 150 149 145 145 140 136 136 140 135 120 105 95 88 89 98 112 125 133 122 111 103 96 72 79 78 65 75 87 78 94 102
239 270 279 270 251 122 178 212 221 178 144 150 149 150 165 173 155 133 130 138 140 135 131 130 129 133 127 119 118 117 117 120 95 95 91 89 106 118 111 101 84 80 87 83 89 98 89 80 93
244 268 284 295 298 161 187 240 244 164 157 159 158 165 165 148 132 137 135 144 146 141 138 135 136 136 134 131 136 140 135 122 118 60 56 67 100 127 127 116 113 100 93 77 75 91 98 91 95
255 230 240 247 316 19 101 342 346 51 95 113 135 152 156 158 158 163 161 163 153 149 152 151 150 145 140 131 113 100 76 58 48 37 33 7 82 114 123 131 126 115 108 112 109 113 120 132 62
260 252 228 237 105 285 135 212 302 274 62 92 131 142 159 169 165 169 169 168 163 159 152 147 145 138 139 134 130 130 131 141 184 180 155 34 58 84 105 127 138 135 125 130 143 125 127 130 125
234 246 224 203 146 27 13 118 278 306 302 239 190 170 163 165 169 172 173 168 156 147 143 141 135 133 138 136 142 139 136 148 145 116 94 66 32 52 88 102 114 143 148 149 144 131 126 131 142
230 17 19 46 68 16 263 155 259 235 213 206 185 166 157 149 152 160 160 147 144 145 140 136 129 134 139 143 148 145 145 142 130 121 111 87 26 18 51 93 98 148 162 169 169 158 140 146 141
62 79 31 2 13 258 260 136 242 239 206 187 173 168 159 151 139 136 139 143 150 152 149 148 149 156 156 146 151 150 149 148 154 162 161 145 127 22 28 98 136 168 204 191 176 162 157 160 156
203 137 153 190 224 273 334 212 263 260 138 120 135 149 145 146 144 145 151 149 149 154 154 156 158 158 157 154 158 144 142 149 160 159 153 165 187 199 195 177 164 173 210 211 181 171 188 172 176
167 172 165 142 172 44 293 289 321 15 77 96 114 128 141 143 142 143 147 146 146 149 158 167 165 161 162 162 155 146 149 152 160 164 155 162 181 183 174 176 181 249 249 230 185 186 207 187 184
155 150 92 105 134 243 272 232 218 210 190 156 149 151 147 145 137 138 145 150 157 160 157 157 159 166 165 160 159 158 160 160 161 159 161 163 184 175 160 167 199 235 249 233 207 199 205 171 205
40 77 109 122 151 158 228 261 219 194 186 171 174 168 155 154 152 147 145 145 144 143 154 158 154 151 158 159 156 155 162 164 161 166 175 170 164 163 174 200 207 216 232 218 189 205 196 192 214
137 148 135 147 219 166 175 258 244 189 179 160 157 149 145 152 151 145 142 137 135 140 149 154 153 150 160 159 156 166 170 164 169 184 189 166 166 181 196 208 216 224 217 186 171 200 196 199 209